Temp
-1 0 2 4 6 7 8 10 12 13 14 14 14 14 14 14 13 13 13 13 13 13 12 13 12 13 12 13 12 12 13 12 12 12 11 11 11 11 11 10 10 10 10
-2 -1 0 1 2 4 6 7 9 12 13 13 14 14 13 15 13 13 13 13 13 13 12 13 14 13 13 13 12 12 12 12 12 12 11 10 10 10 11 10 10 10 10
-2 -2 -2 -1 -0 1 4 5 8 10 12 13 13 14 14 14 14 14 14 13 12 13 12 13 14 13 14 13 13 12 12 12 12 12 12 10 10 10 10 10 10 11 10
-3 -3 -2 -2 -2 -1 1 3 5 8 11 12 13 13 14 13 16 14 14 13 12 12 12 13 12 13 14 14 13 13 13 12 12 12 12 12 12 11 10 10 10 11 11
-3 -4 -3 -3 -2 -1 -1 1 4 7 9 10 12 12 13 13 14 13 13 13 13 12 12 12 12 13 14 13 12 12 12 13 13 12 11 12 12 12 12 12 11 11 12
-4 -4 -3 -3 -3 -2 -1 -0 3 5 7 9 12 12 13 13 13 13 13 13 13 12 12 12 11 12 13 13 11 12 12 13 13 13 13 13 13 13 13 13 14 14 13
-4 -4 -4 -4 -3 -3 -2 -1 1 4 6 7 10 12 12 12 13 13 13 12 12 12 13 12 11 12 12 12 11 11 11 12 12 13 13 13 13 14 14 13 14 14 14
-3 -4 -4 -4 -4 -3 -3 -2 -1 1 3 5 8 10 12 12 12 13 13 13 13 13 13 12 12 11 11 12 10 10 11 12 12 12 12 12 13 13 13 13 14 14 14
-3 -3 -4 -4 -4 -4 -3 -3 -1 -0 1 3 5 8 11 10 11 12 13 14 13 13 14 13 13 12 11 11 11 11 11 11 12 11 11 12 13 13 12 13 13 14 14
-2 -3 -3 -4 -4 -4 -4 -3 -2 -1 0 1 3 6 9 10 11 12 12 13 12 12 12 13 13 12 12 12 11 11 11 11 11 12 12 13 13 13 12 13 13 13 13
-3 -3 -3 -3 -4 -3 -3 -3 -2 -2 -0 1 1 4 7 9 10 12 12 12 12 12 11 12 12 12 12 12 12 11 11 11 11 11 11 13 14 14 13 13 13 13 13
-3 -3 -3 -2 -3 -2 -3 -3 -3 -2 -1 -0 0 1 3 6 9 11 12 12 13 12 11 12 12 12 12 13 11 12 11 12 12 12 13 14 14 13 14 14 13 13 13
-3 -2 -3 -2 -2 -3 -2 -3 -3 -2 -2 -1 -0 0 2 4 7 10 11 11 12 12 12 12 12 12 12 12 13 11 12 13 13 13 14 15 15 14 14 13 13 13 13
-3 -3 -2 -2 -2 -2 -2 -2 -3 -2 -2 -2 -1 -0 0 2 4 8 10 11 11 12 12 12 12 12 12 11 12 12 11 12 13 13 13 14 13 14 14 14 14 13 13
-3 -3 -2 -3 -3 -2 -2 -2 -3 -2 -3 -2 -2 -0 -0 1 2 6 8 10 11 12 12 12 12 12 11 12 11 11 12 11 11 12 13 13 13 13 14 14 14 14 14
-3 -3 -3 -3 -3 -3 -3 -3 -3 -3 -3 -3 -2 -1 0 1 1 3 7 9 10 11 11 12 11 12 12 12 12 12 12 11 11 11 11 13 13 13 14 14 14 14 14
-3 -3 -3 -3 -3 -3 -3 -3 -3 -3 -3 -3 -3 -2 -1 -1 -0 1 4 6 9 10 11 12 12 12 12 12 12 12 12 13 12 12 12 13 14 14 13 14 14 14 14
-3 -4 -4 -4 -4 -3 -3 -3 -3 -3 -3 -3 -3 -2 -2 -2 -2 -1 1 4 6 8 10 11 11 12 12 12 12 12 12 11 13 13 14 13 13 14 13 13 13 13 13
-4 -4 -4 -4 -4 -4 -4 -3 -3 -3 -3 -3 -3 -3 -2 -2 -3 -2 -1 1 4 6 8 9 10 11 11 12 11 11 11 11 11 13 14 13 13 13 13 13 13 13 13
-4 -5 -5 -5 -5 -5 -4 -4 -4 -3 -3 -3 -3 -3 -2 -1 -3 -3 -2 -2 2 4 6 8 10 10 10 12 11 11 11 11 11 11 12 12 12 12 12 13 12 13 13
-5 -5 -6 -6 -6 -5 -5 -5 -4 -4 -4 -4 -3 -3 -3 -2 -2 -3 -2 -2 -0 2 3 7 9 10 10 10 11 10 11 11 11 11 11 12 12 12 13 12 12 12 13
-5 -6 -6 -6 -6 -6 -6 -6 -5 -5 -4 -4 -4 -3 -3 -3 -2 -2 -3 -2 -1 -1 0 3 7 9 10 10 10 10 11 11 10 11 12 13 12 13 13 12 12 12 12
-6 -6 -7 -7 -7 -7 -7 -6 -6 -5 -5 -4 -4 -4 -3 -3 -3 -3 -3 -3 -2 -2 -1 -1 2 5 6 8 9 10 10 10 10 10 9 11 13 13 13 13 13 12 12
-7 -7 -7 -8 -8 -8 -7 -7 -7 -6 -5 -5 -5 -4 -4 -3 -4 -2 -3 -3 -3 -3 -3 -2 -1 1 2 4 6 8 8 9 9 10 10 10 11 12 12 13 12 12 12
-7 -8 -8 -8 -8 -8 -8 -8 -7 -7 -6 -6 -5 -5 -4 -4 -3 -4 -3 -3 -3 -4 -4 -3 -3 -2 -1 -0 2 4 7 8 9 9 9 9 10 11 11 12 12 12 12
-8 -8 -9 -9 -8 -8 -8 -8 -7 -7 -7 -6 -6 -6 -5 -4 -4 -4 -3 -3 -3 -3 -3 -3 -3 -3 -2 -1 -0 2 3 5 7 7 9 10 9 10 10 10 10 10 11
Height
1489 1480 1474 1468 1463 1459 1453 1451 1452 1456 1459 1464 1465 1462 1461 1464 1468 1472 1477 1482 1485 1488 1496 1500 1507 1513 1518 1522 1527 1532 1538 1540 1544 1549 1553 1557 1561 1562 1563 1563 1564 1565 1566
1483 1479 1472 1468 1463 1459 1455 1451 1449 1448 1452 1457 1460 1464 1461 1460 1465 1469 1472 1478 1481 1488 1493 1496 1506 1513 1517 1520 1524 1528 1532 1537 1541 1545 1549 1554 1559 1559 1560 1561 1562 1563 1564
1491 1484 1476 1472 1466 1460 1455 1452 1449 1446 1448 1451 1454 1459 1462 1462 1464 1465 1467 1472 1477 1484 1489 1491 1496 1505 1512 1516 1520 1524 1527 1531 1538 1540 1544 1548 1553 1555 1557 1557 1558 1560 1561
1494 1488 1480 1474 1470 1464 1458 1453 1447 1444 1442 1446 1449 1451 1454 1455 1456 1455 1458 1465 1474 1479 1481 1487 1492 1501 1507 1513 1517 1521 1524 1528 1533 1536 1539 1542 1547 1551 1553 1553 1554 1556 1558
1498 1491 1485 1479 1475 1467 1459 1453 1447 1442 1440 1439 1445 1445 1449 1452 1454 1458 1460 1459 1465 1472 1477 1484 1490 1497 1501 1509 1513 1516 1520 1525 1530 1532 1533 1539 1544 1546 1547 1547 1549 1551 1553
1501 1495 1489 1482 1475 1468 1461 1454 1447 1441 1437 1436 1439 1441 1445 1447 1450 1452 1456 1456 1460 1466 1473 1480 1486 1491 1496 1501 1509 1513 1516 1521 1525 1528 1533 1535 1538 1540 1543 1545 1546 1546 1549
1505 1498 1489 1481 1474 1467 1462 1456 1447 1440 1436 1433 1434 1435 1438 1442 1443 1447 1449 1453 1456 1459 1464 1471 1478 1485 1490 1493 1501 1505 1508 1513 1518 1521 1527 1532 1534 1538 1541 1543 1544 1544 1546
1511 1505 1497 1487 1478 1470 1465 1458 1448 1441 1436 1431 1429 1430 1431 1428 1437 1440 1444 1446 1449 1452 1457 1464 1471 1478 1484 1489 1495 1500 1503 1507 1510 1514 1519 1525 1530 1534 1537 1540 1541 1542 1544
1516 1510 1501 1492 1482 1474 1468 1459 1449 1442 1437 1432 1427 1427 1429 1428 1432 1436 1443 1442 1445 1449 1454 1458 1464 1469 1477 1482 1488 1494 1497 1500 1504 1508 1515 1520 1525 1529 1533 1535 1537 1540 1540
1519 1511 1504 1497 1487 1479 1471 1460 1451 1444 1438 1433 1427 1424 1424 1426 1429 1431 1434 1435 1439 1445 1448 1451 1457 1462 1469 1475 1481 1487 1492 1493 1497 1504 1509 1513 1519 1523 1525 1529 1532 1535 1537
1518 1511 1505 1499 1491 1480 1471 1459 1451 1444 1438 1433 1426 1421 1420 1422 1423 1425 1429 1429 1434 1439 1442 1446 1450 1454 1460 1465 1472 1479 1485 1487 1491 1497 1502 1507 1514 1516 1520 1523 1526 1529 1532
1517 1511 1506 1498 1491 1483 1473 1461 1452 1445 1440 1435 1429 1423 1418 1417 1417 1417 1415 1423 1428 1432 1436 1439 1438 1447 1451 1456 1462 1469 1476 1480 1484 1489 1496 1501 1506 1509 1513 1517 1520 1523 1526
1516 1509 1503 1498 1493 1486 1476 1464 1455 1445 1440 1435 1428 1422 1416 1413 1411 1411 1413 1417 1421 1423 1428 1433 1434 1437 1443 1448 1453 1460 1467 1473 1476 1481 1487 1493 1497 1501 1506 1508 1512 1517 1520
1516 1508 1501 1496 1492 1486 1478 1470 1457 1449 1441 1434 1428 1419 1414 1410 1408 1407 1407 1412 1413 1418 1420 1424 1428 1431 1436 1441 1446 1450 1458 1464 1467 1474 1479 1485 1489 1493 1497 1501 1505 1509 1511
1515 1509 1502 1495 1489 1481 1477 1471 1461 1447 1438 1434 1430 1421 1415 1409 1404 1402 1404 1404 1405 1410 1413 1417 1420 1424 1423 1430 1436 1441 1446 1453 1458 1463 1469 1474 1479 1484 1489 1493 1498 1501 1504
1516 1510 1503 1497 1490 1483 1473 1461 1458 1450 1445 1437 1428 1421 1415 1409 1403 1398 1396 1396 1397 1401 1405 1409 1412 1414 1415 1419 1424 1429 1436 1441 1446 1452 1457 1462 1468 1474 1481 1486 1490 1494 1496
1515 1510 1504 1497 1488 1478 1469 1462 1459 1454 1453 1440 1432 1425 1418 1412 1403 1396 1393 1391 1391 1392 1393 1396 1399 1407 1408 1410 1409 1420 1426 1428 1432 1439 1445 1450 1457 1464 1470 1477 1481 1484 1488
1513 1510 1505 1499 1492 1485 1477 1470 1464 1459 1452 1442 1435 1429 1425 1415 1406 1400 1394 1390 1387 1386 1388 1389 1396 1396 1401 1403 1406 1405 1414 1424 1424 1428 1435 1440 1444 1450 1459 1466 1470 1474 1477
1511 1506 1501 1496 1490 1485 1478 1472 1464 1460 1452 1445 1437 1430 1422 1412 1403 1398 1392 1387 1385 1382 1382 1382 1386 1387 1392 1397 1396 1402 1406 1414 1417 1419 1423 1429 1434 1440 1448 1455 1459 1463 1466
1508 1502 1496 1491 1485 1481 1475 1469 1463 1458 1454 1446 1441 1434 1423 1415 1408 1401 1395 1387 1381 1378 1377 1378 1378 1382 1385 1385 1390 1393 1394 1398 1403 1411 1414 1419 1423 1429 1435 1441 1446 1448 1454
1506 1500 1493 1487 1481 1474 1468 1462 1458 1455 1448 1444 1436 1430 1422 1418 1412 1403 1397 1388 1380 1377 1374 1374 1373 1371 1374 1379 1381 1387 1390 1391 1399 1399 1405 1408 1414 1418 1423 1428 1432 1436 1446
1503 1498 1491 1486 1482 1477 1471 1466 1460 1455 1449 1441 1436 1432 1428 1422 1416 1409 1402 1394 1385 1380 1376 1370 1367 1367 1369 1372 1374 1376 1379 1384 1390 1384 1387 1397 1404 1409 1412 1416 1420 1428 1435
1501 1496 1491 1485 1480 1475 1471 1466 1462 1455 1449 1443 1439 1434 1428 1424 1419 1413 1405 1400 1392 1386 1381 1377 1364 1362 1363 1364 1364 1367 1370 1372 1373 1378 1384 1390 1395 1400 1403 1406 1412 1417 1421
1498 1493 1488 1482 1477 1473 1469 1465 1460 1455 1449 1444 1440 1434 1427 1424 1421 1416 1408 1404 1399 1396 1388 1377 1369 1365 1363 1361 1360 1360 1360 1360 1365 1370 1375 1375 1380 1385 1390 1397 1401 1406 1408
1495 1490 1485 1480 1475 1470 1465 1461 1456 1452 1448 1444 1440 1434 1429 1428 1423 1419 1412 1408 1405 1401 1393 1386 1380 1371 1367 1362 1359 1357 1353 1352 1355 1359 1363 1366 1363 1371 1379 1384 1390 1393 1397
1492 1487 1482 1477 1472 1468 1463 1459 1456 1452 1449 1444 1440 1435 1432 1427 1426 1420 1416 1413 1408 1404 1398 1393 1387 1381 1376 1370 1360 1357 1351 1351 1351 1352 1350 1356 1359 1365 1368 1374 1379 1380 1386
Wind_Speed
37 41 37 32 28 23 13 5 22 30 29 40 42 41 40 45 40 41 40 40 37 35 35 31 27 31 38 42 44 40 37 32 31 30 26 19 16 15 13 12 9 9 9
45 45 42 37 33 28 22 16 8 23 29 33 45 39 40 41 41 41 41 45 40 41 40 42 34 34 38 41 45 43 39 36 33 34 30 21 18 20 18 18 14 12 12
38 41 45 44 37 33 26 24 17 10 24 32 35 41 33 35 39 41 39 46 45 44 40 37 43 42 44 44 46 46 45 42 36 39 23 15 11 23 22 23 19 16 16
40 40 41 43 41 39 29 26 21 9 12 25 25 41 40 41 42 45 45 49 46 43 46 35 46 38 37 43 46 48 49 46 40 42 33 27 14 16 14 27 26 21 19
39 40 41 39 38 35 33 28 22 11 5 12 26 26 43 42 36 40 46 51 53 53 45 44 45 45 46 43 42 47 46 47 43 40 36 25 20 17 17 15 28 28 23
39 42 39 38 39 36 35 29 24 16 8 5 22 24 33 42 40 37 44 50 56 52 47 47 49 49 50 53 47 42 43 46 49 46 39 39 33 28 23 22 15 26 22
37 40 44 44 40 41 38 34 26 21 15 8 9 23 22 38 43 40 44 48 54 55 52 50 50 54 56 60 56 46 41 42 48 46 41 39 36 30 24 21 17 18 24
36 36 41 42 41 40 39 36 32 25 19 14 8 14 30 20 30 44 45 46 49 49 47 51 49 50 57 60 55 53 45 44 43 45 41 40 38 36 31 24 20 14 19
34 33 36 42 41 41 37 35 34 29 23 19 13 9 18 12 24 40 45 39 45 45 43 48 50 47 55 56 54 52 50 42 46 41 40 40 37 36 39 30 26 21 17
32 33 33 38 41 40 40 36 35 32 29 21 15 12 10 21 25 26 44 40 41 46 46 49 53 49 55 54 51 46 50 51 43 40 40 37 37 33 39 36 31 28 24
32 33 33 33 39 45 43 41 39 36 33 25 18 12 8 11 16 31 41 39 42 46 41 49 53 54 58 59 57 52 48 47 40 43 34 35 37 36 33 37 37 34 30
32 33 34 36 37 43 47 46 43 42 34 31 22 18 13 8 10 21 16 27 41 43 45 49 48 53 58 60 59 61 53 49 48 47 45 41 38 39 34 37 43 43 37
33 36 36 37 39 38 44 47 46 44 41 34 29 21 18 14 7 10 33 40 33 42 44 46 51 52 57 61 60 58 59 54 53 54 49 47 44 42 45 41 41 44 41
34 37 38 36 39 39 39 42 45 45 44 40 32 28 24 21 15 10 14 30 28 37 43 42 48 52 51 57 61 59 60 60 61 55 52 53 49 45 45 42 41 42 41
33 37 39 33 39 41 39 40 42 45 45 45 38 30 28 24 19 14 15 16 20 24 39 44 48 51 54 53 59 60 60 62 61 59 57 56 55 50 47 45 42 44 42
31 35 33 34 38 38 38 40 41 42 44 43 45 38 28 26 25 18 16 19 18 27 28 39 48 50 50 52 59 60 60 62 60 59 59 56 55 53 52 48 44 43 42
30 32 32 37 35 35 35 36 39 40 40 43 43 42 38 33 30 25 20 20 24 25 25 32 39 50 51 52 52 53 59 58 63 65 61 64 59 55 54 51 47 46 44
31 28 34 32 31 28 30 33 34 34 37 41 43 42 41 40 39 30 23 21 23 24 30 28 33 43 48 53 49 51 59 58 55 57 63 63 63 58 57 56 53 51 50
26 30 34 31 29 29 29 29 30 29 33 38 43 42 41 44 44 44 32 24 20 21 25 29 38 37 41 39 46 48 54 62 58 57 55 58 62 63 61 58 56 53 53
26 34 33 31 31 29 29 28 30 28 30 34 37 41 40 40 42 44 41 28 18 15 15 23 29 38 40 40 41 43 52 57 54 59 58 57 57 57 55 55 54 56 54
28 34 31 30 28 29 29 30 30 30 30 31 33 36 40 39 39 39 43 37 22 13 9 19 22 30 35 38 41 39 34 43 50 53 58 57 55 52 50 51 52 52 46
28 31 29 28 26 26 26 28 29 28 28 30 33 31 33 37 37 36 40 40 34 22 14 2 20 26 28 31 33 38 45 48 39 42 51 54 52 47 47 46 46 43 43
26 29 26 25 29 28 27 27 28 27 27 28 30 30 29 32 34 35 32 38 37 34 28 21 11 2 9 20 30 36 37 43 45 46 50 57 53 46 43 43 44 41 44
31 26 26 26 30 28 26 25 24 24 25 26 26 29 27 30 32 33 29 28 33 33 32 31 27 18 10 7 13 27 36 42 47 51 54 42 47 46 47 46 46 46 48
28 26 27 27 28 27 25 23 21 22 23 23 25 27 26 26 28 30 30 32 24 26 32 31 28 29 24 19 15 13 18 23 35 45 46 49 39 51 50 47 47 48 50
26 26 26 27 23 23 23 22 20 21 22 22 23 25 25 23 24 26 25 24 24 21 23 24 32 27 20 18 17 13 10 14 16 16 25 40 40 48 50 48 45 46 46
Wind_Direction
359 1 1 360 359 2 2 261 221 221 216 229 222 216 212 211 211 214 214 215 201 197 183 186 199 192 189 190 192 193 197 196 197 196 183 186 207 216 220 215 211 209 209
3 1 0 1 359 358 355 349 276 216 215 217 229 222 219 218 217 209 211 208 202 196 192 186 191 199 201 197 197 200 197 203 207 198 185 179 202 218 222 226 223 225 229
360 359 358 1 357 356 356 352 334 260 221 220 225 222 219 210 207 214 210 208 202 198 201 194 197 196 204 203 202 204 207 206 205 200 195 169 207 214 226 233 229 229 235
0 359 359 358 359 356 351 353 349 304 234 221 228 223 221 212 225 217 208 210 203 203 194 198 193 199 203 209 208 210 213 214 209 199 196 207 209 195 223 231 233 229 236
359 357 358 359 354 357 355 352 352 337 269 220 225 218 224 228 229 219 211 208 207 209 208 206 198 198 199 214 214 217 216 222 222 209 203 205 213 219 225 228 225 232 232
356 1 359 359 355 2 359 354 352 356 330 276 210 222 223 222 226 219 206 211 212 212 215 213 208 203 204 214 213 221 227 225 222 225 217 218 217 222 226 230 235 231 233
360 357 359 356 359 1 1 357 353 352 348 335 237 227 212 228 224 229 214 214 210 215 216 215 210 204 206 212 215 223 227 230 226 227 219 223 227 234 234 236 240 232 231
6 358 359 356 1 360 358 360 356 351 347 350 311 243 229 236 229 229 223 219 217 220 220 215 215 215 213 215 220 225 228 230 226 216 223 227 229 235 233 234 230 236 232
0 359 359 3 1 360 355 2 1 354 349 347 355 288 238 238 247 222 232 230 226 221 222 222 218 219 214 215 221 225 223 232 231 219 223 229 230 235 234 234 234 232 241
359 357 358 1 5 0 360 12 9 0 353 347 357 347 264 236 219 228 225 227 226 219 224 225 217 218 214 217 223 225 230 227 223 222 224 225 228 233 234 232 234 235 241
348 355 358 359 5 10 6 11 18 9 0 348 354 350 310 253 226 232 235 232 232 229 231 228 221 219 221 220 220 223 228 233 234 214 222 231 233 237 238 233 234 237 240
341 346 1 5 2 7 9 11 18 18 10 1 345 353 337 295 257 245 238 235 236 241 231 227 228 228 225 223 224 223 229 231 225 218 225 225 231 235 240 242 237 238 242
353 3 358 3 5 3 8 11 15 18 16 8 354 347 347 334 271 207 219 241 247 233 232 233 229 230 229 226 226 227 225 229 226 227 226 221 225 234 239 238 238 237 242
1 2 4 360 0 4 6 9 11 15 17 15 5 354 352 348 330 256 223 227 231 245 234 243 234 237 237 232 231 230 223 229 231 230 231 234 236 240 239 239 237 236 237
4 2 359 2 1 0 3 4 10 11 15 15 15 6 357 351 325 299 257 235 213 229 243 250 251 242 236 239 231 231 229 227 230 236 237 239 241 240 239 240 239 236 237
1 2 4 3 356 355 357 1 3 8 9 13 16 15 3 351 347 317 294 255 242 225 236 249 251 246 244 244 242 238 233 227 228 231 237 243 241 240 241 245 245 244 241
360 357 356 354 352 353 358 0 359 4 5 10 15 16 21 15 3 346 313 285 252 242 237 241 251 243 251 248 240 240 237 235 232 232 234 242 243 240 242 244 246 248 248
355 353 353 351 353 359 357 354 359 2 2 6 9 14 13 21 20 2 345 308 275 254 247 241 247 247 245 250 255 241 242 237 236 236 239 242 242 242 242 243 245 246 248
347 344 346 348 347 350 351 353 358 359 3 4 1 5 8 11 19 13 360 345 309 273 253 257 247 250 245 255 246 254 231 242 236 240 241 241 244 246 246 246 248 248 248
340 341 344 343 348 350 351 355 2 0 2 3 360 358 5 7 9 13 9 359 338 309 260 260 252 245 250 251 260 246 241 231 232 237 241 243 245 246 248 249 249 248 248
339 343 345 345 349 352 359 2 1 6 4 0 -0 359 1 5 7 10 14 12 5 346 307 235 239 230 245 247 249 246 238 243 246 232 237 244 243 243 245 248 249 249 252
341 344 342 344 349 353 359 359 357 355 355 359 360 1 359 1 8 6 10 19 22 22 9 347 222 237 231 241 238 243 242 239 237 242 235 246 245 244 245 246 249 250 251
339 344 340 343 342 348 346 345 347 349 350 356 359 358 3 358 3 10 8 12 22 24 27 25 43 210 238 235 238 240 241 236 240 239 231 241 247 250 250 249 248 245 245
340 341 342 339 343 347 344 343 345 349 352 355 356 359 4 2 356 9 12 5 13 19 25 27 30 29 7 270 245 249 251 248 236 238 236 235 242 249 251 250 247 245 245
339 338 340 341 343 346 350 351 351 353 355 356 356 359 2 2 359 0 17 15 2 11 22 26 28 27 21 12 346 297 254 244 245 243 241 244 242 248 249 249 248 244 242
339 340 341 343 351 359 2 2 2 4 358 353 355 357 359 0 0 4 1 11 16 10 18 13 23 30 25 17 12 356 337 260 218 223 237 245 252 245 242 245 251 246 237